[[{"header":{"parameterUnit":"m.s-1","parameterCategory":1,"la1":30.2992,"la2":30.254,"lo1":-89.0895,"lo2":-89.0443,"dy":0.0025,"dx":0.0025,"nx":19,"ny":19,"refTime":"2026-04-02T21:00:00:Z","depth":0,"parameterNumber":2,"parameterNumberName":"U-component_of_WINDS"},"data":[0,0,0,-3.9766,-3.977,-3.9962,-3.9963,-4.0208,-4.021,0,0,0,0,0,0,0,0,0,0,0,-3.9708,-3.9709,-3.9766,-3.9771,-3.9962,-3.9963,-4.0207,-4.021,0,0,0,0,0,0,0,0,0,0,0,-3.9707,-3.9709,-3.9711,-3.9772,-3.9962,-3.9963,-4.0207,-4.0063,0,0,0,0,0,0,0,0,0,0,-3.9877,-3.982,-3.9708,-3.9711,-3.9773,-3.9962,-3.9963,-4.0056,-4.0072,-4.012,0,-4.0161,0,-4.0189,-4.0226,-4.0227,0,0,0,-3.9773,-3.9807,-3.986,-3.9711,-3.9774,-3.9962,-3.9876,-4.0065,-4.0083,-4.0141,-4.0165,-4.0174,-4.0193,-4.0227,-4.0229,-4.0499,-4.05,0,0,-3.9762,-3.9741,-3.9848,-3.9872,-3.9841,-3.987,-3.9882,-4.0075,-4.01,-4.0166,-4.018,-4.0197,-4.0229,-4.0231,-4.0498,-4.0499,0,0,0,-3.973,-3.9734,-3.9783,-3.9862,-3.9896,-3.9876,-3.989,-4.0092,-4.0109,-4.0182,-4.02,-4.023,-4.0233,-4.0497,-4.0498,-4.0534,0,0,0,-3.9724,-3.9715,-3.9778,-3.9767,-3.9893,-3.9996,-3.9901,-4.0096,-4.0118,-4.0199,-4.0231,-4.0236,-4.0495,-4.0497,-4.0531,-4.0554,0,0,0,-3.9696,-3.9712,-3.9739,-3.9766,-3.9847,-3.9993,-4.0022,-4.0101,-4.0129,-4.0227,-4.0236,-4.0494,-4.0497,-4.0527,-4.0549,-4.0618,0,0,0,-3.966,-3.9769,-3.9739,-3.9869,-3.9845,-4.0015,-4.0021,-4.0149,-4.0237,-4.0232,-4.0495,-4.0498,-4.0526,-4.0546,-4.0614,-4.067,-4.0692,0,0,-3.9786,-3.9784,-3.9862,-3.9841,-4.0009,-3.9987,-4.0163,-4.0264,-4.0293,-4.0429,-4.0436,-4.0532,-4.0548,-4.0617,-4.0828,-4.0845,0,0,0,-3.9895,-3.995,-4.0,-4.0082,-4.0162,-4.0232,-4.0309,-4.0347,-4.0463,-4.0358,-4.0578,-4.0588,-4.0629,-4.0657,-4.0672,-4.0708,-4.0511,-4.051,-4.051,-4.0042,-4.0074,-4.0205,-4.0259,-4.034,-4.0419,-4.0487,-4.0551,-4.056,-4.0612,-4.0651,-4.0775,-4.0807,-4.0818,-4.0855,-4.0686,-4.0686,-4.0686,-4.0686,-4.0228,-4.0311,-4.0321,-4.0451,-4.0485,-4.0595,-4.0677,-4.068,-4.0788,-4.0748,-4.0785,-4.0736,-4.0836,-4.087,-4.0689,-4.0689,-4.0688,-4.0688,-4.0688,-4.0325,-4.037,-4.0415,-4.0538,-4.063,-4.0684,-4.0787,-4.0815,-4.0842,-4.088,-4.0924,-4.0923,-4.0924,-4.09,-4.09,-4.0901,-4.0901,-4.0901,-4.0902,-4.0407,-4.0456,-4.0539,-4.0634,-4.0691,-4.077,-4.0853,-4.0911,-4.0982,-4.0994,-4.0994,-4.0997,-4.0841,-4.0799,-4.0908,-4.0907,-4.0906,-4.0906,-4.0905,-4.0578,-4.0545,-4.0672,-4.0729,-4.0844,-4.0934,-4.097,-4.1085,-4.1137,-4.1188,-4.1185,-4.1065,-4.1064,-4.1053,-4.1018,-4.1178,-4.1178,-4.1178,-4.1178,-4.0658,-4.0661,-4.0798,-4.0888,-4.098,-4.1025,-4.117,-4.1237,-4.13,-4.1335,-4.1317,-4.1275,-4.1262,-4.1269,-4.1253,-4.1221,-4.1429,-4.1429,-4.143,-4.0764,-4.0778,-4.0894,-4.0955,-4.1048,-4.1127,-4.1264,-4.1368,-4.1434,-4.144,-4.1363,-4.1352,-4.1285,-4.1261,-4.1261,-4.1235,-4.1177,0,0]},{"header":{"parameterUnit":"m.s-1","parameterCategory":1,"la1":30.2992,"la2":30.254,"lo1":-89.0895,"lo2":-89.0443,"dy":0.0025,"dx":0.0025,"nx":19,"ny":19,"refTime":"2026-04-02T21:00:00:Z","depth":0,"parameterNumber":3,"parameterNumberName":"V-component_of_WINDS"},"data":[0,0,0,2.6768,2.6769,2.6858,2.6858,2.6968,2.6969,0,0,0,0,0,0,0,0,0,0,0,2.6739,2.674,2.6767,2.677,2.6858,2.6859,2.6968,2.6969,0,0,0,0,0,0,0,0,0,0,0,2.6739,2.674,2.6741,2.677,2.6858,2.6859,2.6968,2.6902,0,0,0,0,0,0,0,0,0,0,2.6817,2.6788,2.674,2.6741,2.677,2.6858,2.6859,2.6899,2.6906,2.6927,0,2.6944,0,2.6958,2.6976,2.6977,0,0,0,2.6771,2.6782,2.6808,2.6741,2.6771,2.6858,2.6819,2.6903,2.6911,2.6936,2.6946,2.695,2.696,2.6977,2.6977,2.7092,2.7093,0,0,2.6766,2.6754,2.6803,2.6814,2.68,2.6816,2.6821,2.6908,2.6918,2.6946,2.6953,2.6962,2.6978,2.6978,2.7092,2.7092,0,0,0,2.6751,2.675,2.6774,2.6809,2.6825,2.6818,2.6825,2.6914,2.6923,2.6954,2.6963,2.6978,2.698,2.7091,2.7092,2.7104,0,0,0,2.6748,2.6742,2.6772,2.6765,2.6824,2.6871,2.6828,2.6917,2.6927,2.6963,2.6978,2.6981,2.7091,2.7092,2.7103,2.7112,0,0,0,2.6734,2.674,2.6752,2.6765,2.6802,2.687,2.6883,2.6919,2.6933,2.6977,2.6981,2.709,2.7092,2.7101,2.7109,2.7139,0,0,0,2.6715,2.676,2.6752,2.6806,2.6802,2.6877,2.6883,2.6939,2.6978,2.6979,2.7091,2.7092,2.7101,2.7108,2.7138,2.7162,2.717,0,0,2.6765,2.6766,2.6799,2.6794,2.6868,2.6864,2.694,2.6986,2.7001,2.7061,2.7064,2.7103,2.7109,2.7139,2.7225,2.7231,0,0,0,2.6811,2.6834,2.6857,2.6894,2.6932,2.6965,2.7002,2.702,2.7072,2.703,2.7122,2.7126,2.7144,2.7156,2.7162,2.7178,2.7097,2.7097,2.7097,2.6863,2.6881,2.6937,2.6967,2.7003,2.7042,2.7074,2.7104,2.711,2.7132,2.715,2.72,2.7214,2.7218,2.7235,2.7164,2.7164,2.7164,2.7164,2.6938,2.6974,2.6984,2.7043,2.7062,2.7111,2.7151,2.7154,2.7203,2.7187,2.7204,2.7185,2.7225,2.7241,2.7165,2.7165,2.7165,2.7165,2.7165,2.6974,2.6995,2.7017,2.7075,2.7117,2.7145,2.7192,2.7208,2.7223,2.7239,2.726,2.726,2.7262,2.7248,2.7249,2.7249,2.7249,2.7249,2.7249,2.7002,2.7027,2.7065,2.7111,2.7138,2.7176,2.7218,2.7245,2.7279,2.7287,2.7287,2.7292,2.7226,2.7209,2.7252,2.7251,2.7251,2.7251,2.7251,2.7071,2.7059,2.7117,2.7145,2.7201,2.7243,2.7264,2.7318,2.7343,2.7366,2.7368,2.7317,2.7318,2.7314,2.73,2.7364,2.7364,2.7364,2.7364,2.7102,2.7105,2.7169,2.7213,2.7257,2.7282,2.7348,2.7382,2.7414,2.7431,2.7424,2.7407,2.7402,2.7407,2.74,2.7387,2.7472,2.7472,2.7472,2.7146,2.7154,2.7207,2.724,2.7286,2.7325,2.7388,2.7438,2.7472,2.7477,2.7445,2.744,2.7413,2.7403,2.7406,2.7395,2.7372,0,0]}]]